SCP
-0 -0 -0 -0 -0 -0 -0 -0 -0 -0 -0 -0 0 0 0 0 0 0 0 0 -0 -0 -0 -0 -0 -0 -0 -0 0 0 0 0 0 0 0 0 0 0 0 0 0 0 0
-0 -0 -0 -0 -0 -0 -0 -0 0 0 0 0 0 0 0 -0 -0 -0 -0 -0 -0 -0 -0 0 0 0 0 0 0 0 0 0 0 0 0 0 -0 0 0 0 0 0 0
-0 -0 -0 -0 -0 -0 -0 -0 -0 0 0 0 0 -0 -0 -0 -0 -0 -0 -0 0 0 0 0 0 0 0 0 0 0 0 0 0 0 0 0 0 0 0 0 0 0 0
-0 -0 -0 -0 -0 -0 -0 -0 -0 -0 0 -0 -0 -0 -0 -0 0 0 -0 -0 0 0 0 0 0 0 0 0 0 0 0 0 0 -0 -0 0 0 0 1 0 0 0 0
-0 -0 -0 -0 -0 -0 -0 -0 -0 0 0 0 -0 -0 -0 -0 -0 -0 -0 0 0 0 0 0 0 0 0 0 0 0 0 0 0 0 0 0 0 1 1 0 0 0 0
-0 -0 -0 -0 -0 -0 -0 -0 -0 -0 -0 -0 -0 -0 -0 -0 -0 0 0 0 0 0 0 0 0 0 0 0 0 0 0 0 0 0 0 0 0 1 1 1 0 0 0
-0 -0 -0 -0 -0 -0 -0 -0 -0 -0 -0 -0 -0 -0 0 0 0 0 0 0 0 0 0 0 0 0 0 0 0 0 0 0 0 0 0 0 0 1 2 1 0 0 0
-0 -0 -0 -0 -0 -0 -0 -0 -0 -0 -0 -0 0 0 0 0 0 0 0 0 0 0 0 0 0 0 0 0 0 0 0 0 0 0 0 0 1 1 1 0 0 0 0
-0 -0 0 -0 -0 -0 -0 -0 -0 -0 -0 0 0 0 0 0 0 0 0 0 0 0 0 0 0 0 0 0 0 0 0 0 0 0 0 0 1 1 0 0 -0 0 0
-0 -0 -0 -0 0 -0 -0 -0 -0 -0 0 0 0 0 0 0 0 0 0 0 0 0 0 0 0 0 0 0 0 0 0 0 0 0 0 1 0 0 0 0 1 1 0
-0 -0 0 0 0 -0 -0 -0 0 0 0 0 0 0 0 0 0 0 0 0 0 0 0 0 0 0 0 0 0 0 0 0 0 0 0 1 1 1 1 1 1 2 1
-0 -0 0 0 0 0 -0 -0 -0 -0 0 0 0 0 0 0 0 0 0 0 0 0 0 0 0 0 0 0 0 0 0 0 0 0 0 1 1 0 0 1 1 1 1
-0 -0 -0 0 -0 -0 -0 -0 -0 0 0 0 0 0 0 0 0 0 0 0 0 0 0 0 0 0 0 0 0 0 0 0 0 0 0 0 0 1 0 0 1 1 1
-0 -0 -0 0 -0 0 0 0 0 0 0 0 0 0 0 0 0 0 0 0 0 0 0 0 0 0 0 0 0 0 0 0 0 0 0 0 0 0 0 0 0 1 1
-0 -0 -0 0 0 0 0 0 0 0 0 0 0 0 0 0 0 0 0 0 0 0 0 0 0 0 0 0 0 0 0 0 0 0 0 0 0 0 0 1 1 1 1
-0 -0 0 0 0 0 0 0 0 0 0 0 0 0 0 0 0 0 0 0 0 0 0 0 0 0 0 0 0 0 0 0 0 0 0 0 0 0 0 0 0 1 0
-0 -0 0 0 0 0 0 0 0 0 0 0 0 0 0 0 0 0 0 0 0 0 0 0 0 0 0 0 0 0 0 0 0 0 0 0 0 0 0 0 0 0 0
-1 -0 0 0 0 0 0 0 0 0 0 0 0 0 0 0 0 0 0 0 0 0 0 0 0 0 0 0 0 0 0 0 -0 -0 -0 0 0 0 0 0 0 0 0
-1 -0 0 0 0 0 0 0 0 0 0 0 0 0 0 0 0 0 0 0 0 0 0 0 0 0 0 0 0 0 0 0 -0 -0 -0 -0 -0 -0 0 0 0 0 0
-0 0 -0 0 0 0 0 0 0 0 0 0 0 0 0 0 0 0 0 0 0 0 0 0 0 0 0 0 0 0 0 0 0 -0 -0 -0 -0 -0 -0 -0 -0 -0 0
0 0 0 0 0 0 0 0 0 0 0 0 0 0 0 0 0 0 0 0 0 0 0 0 0 0 0 0 0 0 0 0 0 -0 0 -0 -0 -0 -0 -0 -0 -0 -0
0 0 0 0 0 0 0 0 0 0 0 0 0 0 0 0 0 0 0 0 0 0 0 0 0 0 0 0 0 0 0 0 0 0 0 -0 -0 -0 -0 -0 -0 0 0
0 0 0 0 0 0 0 0 0 0 0 0 0 0 0 0 0 0 0 0 0 0 0 0 0 0 0 0 0 0 0 0 0 0 0 0 -0 -0 -0 -0 -0 0 0
0 0 0 0 0 0 0 0 0 0 0 0 0 0 0 0 0 0 0 0 0 0 0 0 0 0 0 0 0 0 0 0 0 0 0 0 0 -0 -0 -0 0 0 0
0 0 0 0 0 0 0 0 0 0 0 0 0 0 0 0 0 0 0 0 0 0 0 0 0 0 0 0 0 0 0 0 0 0 0 0 0 0 0 -0 -0 0 0
0 0 0 0 0 0 0 0 0 0 0 0 0 0 0 0 0 0 0 0 0 0 0 0 0 0 0 0 0 0 0 0 0 0 0 0 0 0 0 0 0 0 0
Wind_Speed_500mb
40 39 33 32 30 27 25 23 21 20 20 21 21 21 21 22 22 22 22 22 21 21 20 20 19 19 17 16 16 15 13 11 7 3 0 4 9 11 11 10 13 16 7
40 40 33 31 28 25 22 19 18 18 20 20 20 21 22 22 22 22 21 21 21 21 21 22 21 20 20 21 20 19 19 17 15 12 7 3 5 2 5 7 15 17 10
42 41 34 31 28 24 21 19 17 19 21 21 21 21 21 22 22 22 22 21 21 21 21 22 23 24 24 23 23 22 22 21 18 15 10 7 4 11 12 6 7 14 12
41 39 36 30 25 22 19 19 20 21 21 20 21 20 20 19 18 18 18 19 19 18 19 19 19 19 20 21 23 25 24 23 20 18 12 9 10 22 21 16 9 16 17
37 38 34 28 24 22 20 21 21 21 21 22 22 21 20 19 20 20 21 22 22 23 24 24 24 24 23 22 22 22 23 23 22 18 9 5 18 24 16 18 20 21 23
32 32 32 26 25 23 22 21 21 23 24 24 23 20 19 19 20 21 23 23 24 24 24 24 24 24 23 24 24 24 24 23 23 20 12 9 18 30 36 26 22 22 28
32 34 31 28 25 24 24 25 26 26 25 21 19 20 21 20 20 21 21 22 22 22 23 24 24 25 25 25 26 26 26 25 24 19 18 23 24 17 26 17 16 26 30
26 34 34 30 28 26 27 28 25 23 21 19 18 17 18 18 19 22 24 26 28 27 27 27 27 28 28 26 25 25 26 26 27 25 22 26 26 26 27 35 16 29 28
33 35 34 32 30 30 29 26 22 19 15 16 17 16 16 17 20 21 27 29 31 28 26 27 27 25 22 19 13 21 20 22 22 20 27 32 36 30 26 16 14 23 25
20 32 34 32 30 29 26 22 17 13 12 14 14 13 15 19 24 24 31 32 35 31 30 31 28 22 20 12 13 19 18 13 19 30 39 23 16 19 17 15 16 23 27
25 42 42 35 29 26 20 16 12 12 11 12 10 10 14 15 15 14 18 22 28 26 27 30 29 24 31 33 23 21 18 14 23 29 31 20 16 17 20 18 15 23 27
38 36 39 30 27 27 20 13 9 8 10 13 8 8 4 13 15 16 16 16 19 21 21 13 19 28 28 36 34 26 21 20 17 21 25 25 24 19 16 21 24 23 22
51 46 36 32 25 18 20 11 10 4 13 9 8 8 8 14 15 17 17 17 19 21 22 15 29 28 34 26 18 19 22 22 15 20 15 13 17 21 21 23 26 30 28
72 54 45 37 31 24 20 24 18 16 17 12 6 7 10 14 15 17 18 17 21 27 23 28 26 33 27 24 28 28 15 22 16 13 14 19 23 28 30 31 28 30 34
73 54 51 49 45 38 37 33 27 19 13 15 6 8 12 15 12 15 15 19 19 25 27 30 27 25 19 26 25 32 25 24 23 18 23 28 29 32 32 32 32 27 22
55 54 52 51 45 38 40 37 25 17 17 6 6 8 14 14 10 11 18 22 13 21 20 17 21 17 23 31 27 25 33 28 34 27 15 24 26 29 28 25 23 15 10
49 47 45 43 44 42 39 29 23 15 10 5 7 11 14 12 8 14 22 17 17 12 7 6 10 14 22 26 27 30 32 36 40 38 39 38 34 32 27 31 25 20 10
55 52 44 39 38 31 28 27 20 22 16 7 8 9 13 12 10 16 22 10 8 2 6 5 10 14 13 19 23 22 20 24 31 35 41 39 37 32 27 21 26 31 30
66 61 48 42 33 30 33 31 24 26 17 12 10 4 10 15 11 17 19 9 11 14 8 8 24 12 14 3 11 16 18 13 22 26 32 33 32 34 33 37 36 34 36
70 58 47 42 36 35 35 30 29 25 20 15 7 3 9 15 8 11 13 9 16 20 11 4 11 12 23 18 1 4 8 16 15 27 25 24 21 24 29 32 31 36 37
71 62 55 45 41 38 37 34 31 28 19 12 3 5 8 11 9 2 9 9 16 23 17 9 11 16 25 29 9 6 2 12 13 22 25 25 19 20 26 33 33 35 31
77 68 59 50 42 36 31 24 21 20 19 7 2 4 12 11 8 3 12 11 11 15 15 14 15 23 25 32 31 15 16 17 19 11 25 25 24 26 27 32 31 27 23
77 68 59 50 42 35 39 35 38 36 23 13 7 6 10 9 7 11 11 9 6 8 19 13 11 14 15 24 31 28 11 14 13 8 18 17 19 23 19 16 20 15 15
68 59 54 53 42 42 42 38 50 36 27 21 9 2 9 6 7 10 12 6 12 17 18 13 9 8 12 23 25 28 22 29 22 9 32 22 11 11 8 14 23 12 16
62 55 53 54 45 53 45 44 44 33 26 24 15 7 2 4 7 10 12 11 10 13 20 23 25 13 19 22 24 23 16 15 24 31 31 25 29 5 13 24 27 11 13
46 44 51 47 51 49 45 39 45 31 34 32 24 11 8 11 8 10 3 5 9 5 12 18 20 23 15 17 20 22 25 23 23 24 30 26 28 37 8 27 24 8 12
Wind_Direction_500mb
139 141 149 141 133 124 115 104 95 88 82 77 74 69 63 56 50 46 42 40 36 30 26 22 16 10 4 0 357 355 352 347 343 332 104 94 99 80 52 14 351 3 342
139 143 149 141 132 125 116 107 97 90 85 79 72 65 58 53 51 50 47 43 36 27 19 11 5 2 357 352 349 347 342 337 333 328 320 279 253 334 8 15 343 348 14
144 143 145 142 137 128 119 111 101 91 81 74 67 61 60 57 52 44 37 29 22 17 14 9 1 355 350 348 344 340 335 329 324 322 323 277 307 306 267 287 329 324 338
144 146 146 141 133 127 118 108 98 89 83 78 74 71 68 60 50 38 27 18 13 4 1 1 357 354 349 346 346 346 345 341 334 323 314 308 306 312 252 254 303 308 298
141 147 141 139 136 124 115 107 99 93 86 79 72 62 50 35 26 16 9 2 357 352 350 347 346 343 341 339 340 340 339 339 341 347 316 138 336 327 227 257 292 312 301
132 143 139 139 129 127 123 113 106 96 87 70 58 45 35 21 12 6 2 357 356 353 350 346 342 338 333 332 330 329 328 328 326 332 313 266 302 297 264 276 287 306 315
139 150 142 136 135 128 118 107 99 89 79 68 51 31 20 18 20 23 23 14 8 0 354 346 340 334 329 327 324 324 321 320 317 320 320 293 332 293 242 242 282 301 320
143 151 142 140 136 126 117 109 101 92 78 59 43 34 37 47 43 38 28 14 5 356 351 342 339 333 328 324 325 327 320 318 318 317 318 302 316 302 286 304 254 300 313
144 151 144 138 130 124 118 112 104 93 78 61 53 47 38 39 39 26 18 360 3 358 357 357 0 354 348 353 1 337 323 334 348 351 342 320 308 292 298 299 276 287 306
135 146 135 130 127 123 119 117 112 99 77 56 48 40 37 27 27 13 3 353 6 15 9 6 18 7 347 333 320 320 333 342 337 353 354 341 296 284 289 289 291 302 300
143 135 129 117 116 120 108 108 103 81 61 47 50 51 31 37 20 5 355 350 5 10 0 7 356 345 342 341 341 321 321 310 336 341 348 338 298 290 282 280 290 294 297
167 147 144 123 116 125 86 79 104 74 38 39 55 77 34 27 11 359 8 343 357 343 338 16 338 348 34 31 21 7 358 333 315 344 12 8 356 343 328 306 301 293 297
172 162 148 136 130 130 103 120 112 343 321 25 15 42 19 18 10 13 23 2 351 347 1 358 11 43 38 15 12 355 358 347 305 322 1 339 322 313 311 315 307 301 288
171 166 155 147 148 146 144 156 182 259 288 315 19 33 13 14 18 28 25 3 353 3 17 25 42 43 24 7 349 347 353 352 351 322 337 336 330 324 313 307 303 292 285
166 167 159 158 168 169 172 178 208 236 261 309 2 15 12 22 41 28 360 351 357 26 35 49 36 39 22 359 19 27 10 8 351 306 318 320 328 328 335 310 291 293 274
167 167 169 176 185 198 191 199 217 226 249 283 318 20 26 38 53 6 357 9 28 39 30 44 51 38 25 31 36 34 29 28 33 35 344 303 319 330 330 326 317 301 259
170 176 182 188 197 199 200 196 189 203 223 283 314 14 31 46 27 8 15 37 57 48 3 60 96 74 35 24 39 42 32 24 25 33 39 39 37 39 35 47 56 63 124
192 203 208 201 199 189 187 189 190 194 217 267 295 352 30 35 29 26 28 58 53 25 317 54 97 89 51 53 40 39 34 33 32 39 48 45 45 49 43 48 46 44 38
205 207 212 204 205 196 188 193 198 200 207 210 247 338 22 49 30 24 23 41 23 323 0 88 74 67 14 357 41 31 27 59 32 31 28 38 40 39 41 48 52 48 39
199 204 210 209 205 189 196 192 196 198 194 208 224 96 8 58 45 29 19 28 36 21 45 112 74 47 28 18 32 74 360 55 52 46 31 9 21 14 47 33 35 37 38
193 202 209 211 203 198 192 192 188 182 188 198 194 10 47 30 93 299 57 40 41 25 47 85 97 76 44 20 270 247 156 118 78 20 31 35 23 7 39 38 41 32 37
196 202 207 212 208 194 194 169 168 168 190 197 336 63 35 28 57 150 103 119 43 13 53 72 122 80 65 40 30 76 51 143 1 4 20 37 58 61 62 46 34 33 24
196 198 209 213 208 192 176 179 180 187 195 203 199 102 26 19 54 116 131 131 73 5 33 71 74 89 73 66 54 50 60 28 80 39 26 18 72 82 62 52 46 35 23
197 204 212 209 202 187 184 196 199 207 206 188 199 53 356 29 78 85 110 115 56 37 47 62 36 78 82 84 81 65 97 62 44 26 44 38 95 96 44 14 12 347 337
198 211 210 202 189 189 192 203 211 192 192 186 198 245 275 113 106 68 72 79 62 31 41 39 45 88 93 87 71 60 53 68 48 42 27 18 52 2 330 11 12 323 324
203 203 199 196 186 188 197 202 191 187 191 193 209 222 141 101 104 102 87 54 119 64 26 40 44 53 117 97 87 71 52 38 31 27 20 17 10 22 44 25 10 10 12
Wind_Speed_850mb
40 39 33 32 30 27 25 23 21 20 20 21 21 21 21 22 22 22 22 22 21 21 20 20 19 19 17 16 16 15 13 11 7 3 0 4 9 11 11 10 13 16 7
40 40 33 31 28 25 22 19 18 18 20 20 20 21 22 22 22 22 21 21 21 21 21 22 21 20 20 21 20 19 19 17 15 12 7 3 5 2 5 7 15 17 10
42 41 34 31 28 24 21 19 17 19 21 21 21 21 21 22 22 22 22 21 21 21 21 22 23 24 24 23 23 22 22 21 18 15 10 7 4 11 12 6 7 14 12
41 39 36 30 25 22 19 19 20 21 21 20 21 20 20 19 18 18 18 19 19 18 19 19 19 19 20 21 23 25 24 23 20 18 12 9 10 22 21 16 9 16 17
37 38 34 28 24 22 20 21 21 21 21 22 22 21 20 19 20 20 21 22 22 23 24 24 24 24 23 22 22 22 23 23 22 18 9 5 18 24 16 18 20 21 23
32 32 32 26 25 23 22 21 21 23 24 24 23 20 19 19 20 21 23 23 24 24 24 24 24 24 23 24 24 24 24 23 23 20 12 9 18 30 36 26 22 22 28
32 34 31 28 25 24 24 25 26 26 25 21 19 20 21 20 20 21 21 22 22 22 23 24 24 25 25 25 26 26 26 25 24 19 18 23 24 17 26 17 16 26 30
26 34 34 30 28 26 27 28 25 23 21 19 18 17 18 18 19 22 24 26 28 27 27 27 27 28 28 26 25 25 26 26 27 25 22 26 26 26 27 35 16 29 28
33 35 34 32 30 30 29 26 22 19 15 16 17 16 16 17 20 21 27 29 31 28 26 27 27 25 22 19 13 21 20 22 22 20 27 32 36 30 26 16 14 23 25
20 32 34 32 30 29 26 22 17 13 12 14 14 13 15 19 24 24 31 32 35 31 30 31 28 22 20 12 13 19 18 13 19 30 39 23 16 19 17 15 16 23 27
25 42 42 35 29 26 20 16 12 12 11 12 10 10 14 15 15 14 18 22 28 26 27 30 29 24 31 33 23 21 18 14 23 29 31 20 16 17 20 18 15 23 27
38 36 39 30 27 27 20 13 9 8 10 13 8 8 4 13 15 16 16 16 19 21 21 13 19 28 28 36 34 26 21 20 17 21 25 25 24 19 16 21 24 23 22
51 46 36 32 25 18 20 11 10 4 13 9 8 8 8 14 15 17 17 17 19 21 22 15 29 28 34 26 18 19 22 22 15 20 15 13 17 21 21 23 26 30 28
72 54 45 37 31 24 20 24 18 16 17 12 6 7 10 14 15 17 18 17 21 27 23 28 26 33 27 24 28 28 15 22 16 13 14 19 23 28 30 31 28 30 34
73 54 51 49 45 38 37 33 27 19 13 15 6 8 12 15 12 15 15 19 19 25 27 30 27 25 19 26 25 32 25 24 23 18 23 28 29 32 32 32 32 27 22
55 54 52 51 45 38 40 37 25 17 17 6 6 8 14 14 10 11 18 22 13 21 20 17 21 17 23 31 27 25 33 28 34 27 15 24 26 29 28 25 23 15 10
49 47 45 43 44 42 39 29 23 15 10 5 7 11 14 12 8 14 22 17 17 12 7 6 10 14 22 26 27 30 32 36 40 38 39 38 34 32 27 31 25 20 10
55 52 44 39 38 31 28 27 20 22 16 7 8 9 13 12 10 16 22 10 8 2 6 5 10 14 13 19 23 22 20 24 31 35 41 39 37 32 27 21 26 31 30
66 61 48 42 33 30 33 31 24 26 17 12 10 4 10 15 11 17 19 9 11 14 8 8 24 12 14 3 11 16 18 13 22 26 32 33 32 34 33 37 36 34 36
70 58 47 42 36 35 35 30 29 25 20 15 7 3 9 15 8 11 13 9 16 20 11 4 11 12 23 18 1 4 8 16 15 27 25 24 21 24 29 32 31 36 37
71 62 55 45 41 38 37 34 31 28 19 12 3 5 8 11 9 2 9 9 16 23 17 9 11 16 25 29 9 6 2 12 13 22 25 25 19 20 26 33 33 35 31
77 68 59 50 42 36 31 24 21 20 19 7 2 4 12 11 8 3 12 11 11 15 15 14 15 23 25 32 31 15 16 17 19 11 25 25 24 26 27 32 31 27 23
77 68 59 50 42 35 39 35 38 36 23 13 7 6 10 9 7 11 11 9 6 8 19 13 11 14 15 24 31 28 11 14 13 8 18 17 19 23 19 16 20 15 15
68 59 54 53 42 42 42 38 50 36 27 21 9 2 9 6 7 10 12 6 12 17 18 13 9 8 12 23 25 28 22 29 22 9 32 22 11 11 8 14 23 12 16
62 55 53 54 45 53 45 44 44 33 26 24 15 7 2 4 7 10 12 11 10 13 20 23 25 13 19 22 24 23 16 15 24 31 31 25 29 5 13 24 27 11 13
46 44 51 47 51 49 45 39 45 31 34 32 24 11 8 11 8 10 3 5 9 5 12 18 20 23 15 17 20 22 25 23 23 24 30 26 28 37 8 27 24 8 12
Wind_Direction_850mb
139 141 149 141 133 124 115 104 95 88 82 77 74 69 63 56 50 46 42 40 36 30 26 22 16 10 4 0 357 355 352 347 343 332 104 94 99 80 52 14 351 3 342
139 143 149 141 132 125 116 107 97 90 85 79 72 65 58 53 51 50 47 43 36 27 19 11 5 2 357 352 349 347 342 337 333 328 320 279 253 334 8 15 343 348 14
144 143 145 142 137 128 119 111 101 91 81 74 67 61 60 57 52 44 37 29 22 17 14 9 1 355 350 348 344 340 335 329 324 322 323 277 307 306 267 287 329 324 338
144 146 146 141 133 127 118 108 98 89 83 78 74 71 68 60 50 38 27 18 13 4 1 1 357 354 349 346 346 346 345 341 334 323 314 308 306 312 252 254 303 308 298
141 147 141 139 136 124 115 107 99 93 86 79 72 62 50 35 26 16 9 2 357 352 350 347 346 343 341 339 340 340 339 339 341 347 316 138 336 327 227 257 292 312 301
132 143 139 139 129 127 123 113 106 96 87 70 58 45 35 21 12 6 2 357 356 353 350 346 342 338 333 332 330 329 328 328 326 332 313 266 302 297 264 276 287 306 315
139 150 142 136 135 128 118 107 99 89 79 68 51 31 20 18 20 23 23 14 8 0 354 346 340 334 329 327 324 324 321 320 317 320 320 293 332 293 242 242 282 301 320
143 151 142 140 136 126 117 109 101 92 78 59 43 34 37 47 43 38 28 14 5 356 351 342 339 333 328 324 325 327 320 318 318 317 318 302 316 302 286 304 254 300 313
144 151 144 138 130 124 118 112 104 93 78 61 53 47 38 39 39 26 18 360 3 358 357 357 0 354 348 353 1 337 323 334 348 351 342 320 308 292 298 299 276 287 306
135 146 135 130 127 123 119 117 112 99 77 56 48 40 37 27 27 13 3 353 6 15 9 6 18 7 347 333 320 320 333 342 337 353 354 341 296 284 289 289 291 302 300
143 135 129 117 116 120 108 108 103 81 61 47 50 51 31 37 20 5 355 350 5 10 0 7 356 345 342 341 341 321 321 310 336 341 348 338 298 290 282 280 290 294 297
167 147 144 123 116 125 86 79 104 74 38 39 55 77 34 27 11 359 8 343 357 343 338 16 338 348 34 31 21 7 358 333 315 344 12 8 356 343 328 306 301 293 297
172 162 148 136 130 130 103 120 112 343 321 25 15 42 19 18 10 13 23 2 351 347 1 358 11 43 38 15 12 355 358 347 305 322 1 339 322 313 311 315 307 301 288
171 166 155 147 148 146 144 156 182 259 288 315 19 33 13 14 18 28 25 3 353 3 17 25 42 43 24 7 349 347 353 352 351 322 337 336 330 324 313 307 303 292 285
166 167 159 158 168 169 172 178 208 236 261 309 2 15 12 22 41 28 360 351 357 26 35 49 36 39 22 359 19 27 10 8 351 306 318 320 328 328 335 310 291 293 274
167 167 169 176 185 198 191 199 217 226 249 283 318 20 26 38 53 6 357 9 28 39 30 44 51 38 25 31 36 34 29 28 33 35 344 303 319 330 330 326 317 301 259
170 176 182 188 197 199 200 196 189 203 223 283 314 14 31 46 27 8 15 37 57 48 3 60 96 74 35 24 39 42 32 24 25 33 39 39 37 39 35 47 56 63 124
192 203 208 201 199 189 187 189 190 194 217 267 295 352 30 35 29 26 28 58 53 25 317 54 97 89 51 53 40 39 34 33 32 39 48 45 45 49 43 48 46 44 38
205 207 212 204 205 196 188 193 198 200 207 210 247 338 22 49 30 24 23 41 23 323 0 88 74 67 14 357 41 31 27 59 32 31 28 38 40 39 41 48 52 48 39
199 204 210 209 205 189 196 192 196 198 194 208 224 96 8 58 45 29 19 28 36 21 45 112 74 47 28 18 32 74 360 55 52 46 31 9 21 14 47 33 35 37 38
193 202 209 211 203 198 192 192 188 182 188 198 194 10 47 30 93 299 57 40 41 25 47 85 97 76 44 20 270 247 156 118 78 20 31 35 23 7 39 38 41 32 37
196 202 207 212 208 194 194 169 168 168 190 197 336 63 35 28 57 150 103 119 43 13 53 72 122 80 65 40 30 76 51 143 1 4 20 37 58 61 62 46 34 33 24
196 198 209 213 208 192 176 179 180 187 195 203 199 102 26 19 54 116 131 131 73 5 33 71 74 89 73 66 54 50 60 28 80 39 26 18 72 82 62 52 46 35 23
197 204 212 209 202 187 184 196 199 207 206 188 199 53 356 29 78 85 110 115 56 37 47 62 36 78 82 84 81 65 97 62 44 26 44 38 95 96 44 14 12 347 337
198 211 210 202 189 189 192 203 211 192 192 186 198 245 275 113 106 68 72 79 62 31 41 39 45 88 93 87 71 60 53 68 48 42 27 18 52 2 330 11 12 323 324
203 203 199 196 186 188 197 202 191 187 191 193 209 222 141 101 104 102 87 54 119 64 26 40 44 53 117 97 87 71 52 38 31 27 20 17 10 22 44 25 10 10 12